EWG3PV LEPA-EDDL

Flight info

Callsign EWG3PV
Flight time N/A
Altitude 36000
Route MEROS DCT LAPIT DCT CHELY DCT LUMAS DCT NEVIX DCT ODIXU DCT MAXIR DCT LUSOL DCT BODRU DCT OKTET DCT IRMAR DCT KINES DCT VANAS DCT MOBLO DCT UBIMA DCT GILIR DCT PENDU DCT IXILU DCT GIVOR/N0418F320 DCT SORAL DCT IBERA DCT DIK N853 ARCKY T853 NVO T857 BIKMU
Aircraft A321/M-SDE2E3FGIJ1LORWXY/HB1

Departure

Time 2026-05-05 07:36
Airport Palma de Mallorca Airport (LEPA)

Arrival

Time N/A
Airport Düsseldorf Airport (EDDL)
Time Latitude Longitude Altitude Speed Heading
2026-05-05 06:55 39.55006 2.73442 30 ft 0 kts 163°
2026-05-05 07:23 39.55009 2.73442 30 ft 3 kts 163°
2026-05-05 07:23 39.55027 2.73431 30 ft 3 kts 135°
2026-05-05 07:24 39.55037 2.73410 30 ft 3 kts 102°
2026-05-05 07:24 39.55038 2.73385 30 ft 3 kts 79°
2026-05-05 07:24 39.55036 2.73371 30 ft 0 kts 84°
2026-05-05 07:28 39.55036 2.73374 30 ft 1 kts 82°
2026-05-05 07:28 39.55052 2.73421 30 ft 9 kts 61°
2026-05-05 07:28 39.55088 2.73498 30 ft 11 kts 59°
2026-05-05 07:28 39.55128 2.73584 30 ft 12 kts 59°
2026-05-05 07:29 39.55173 2.73680 30 ft 11 kts 59°
2026-05-05 07:29 39.55166 2.73759 30 ft 5 kts 115°
2026-05-05 07:29 39.55177 2.73803 30 ft 6 kts 56°
2026-05-05 07:29 39.55212 2.73824 30 ft 6 kts 348°
2026-05-05 07:30 39.55253 2.73793 30 ft 8 kts 327°
2026-05-05 07:30 39.55358 2.73711 30 ft 10 kts 329°
2026-05-05 07:30 39.55422 2.73660 30 ft 11 kts 328°
2026-05-05 07:31 39.55493 2.73604 30 ft 13 kts 329°
2026-05-05 07:31 39.55572 2.73542 30 ft 14 kts 328°
2026-05-05 07:31 39.55639 2.73505 30 ft 9 kts
2026-05-05 07:31 39.55685 2.73563 30 ft 10 kts 57°
2026-05-05 07:32 39.55724 2.73645 30 ft 11 kts 58°
2026-05-05 07:32 39.55767 2.73736 30 ft 12 kts 58°
2026-05-05 07:32 39.55815 2.73836 30 ft 14 kts 58°
2026-05-05 07:32 39.55867 2.73946 30 ft 15 kts 58°
2026-05-05 07:33 39.55922 2.74063 30 ft 16 kts 58°
2026-05-05 07:33 39.55981 2.74189 30 ft 17 kts 59°
2026-05-05 07:33 39.56044 2.74323 30 ft 18 kts 59°
2026-05-05 07:33 39.56091 2.74420 30 ft 7 kts 54°
2026-05-05 07:34 39.56134 2.74459 30 ft 8 kts 18°
2026-05-05 07:34 39.56189 2.74435 30 ft 9 kts 327°
2026-05-05 07:34 39.56243 2.74385 30 ft 5 kts 314°
2026-05-05 07:34 39.56254 2.74343 30 ft 6 kts 275°
2026-05-05 07:35 39.56241 2.74289 30 ft 8 kts 240°
2026-05-05 07:35 39.56121 2.74039 30 ft 69 kts 240°
2026-05-05 07:35 39.55745 2.73242 30 ft 135 kts 238°
2026-05-05 07:35 39.55160 2.72003 86 ft 181 kts 238°
2026-05-05 07:36 39.54506 2.70598 781 ft 183 kts 238°
2026-05-05 07:36 39.53848 2.69188 1677 ft 181 kts 237°
2026-05-05 07:36 39.53201 2.67814 2406 ft 181 kts 237°
2026-05-05 07:36 39.52515 2.66374 2818 ft 195 kts 237°
2026-05-05 07:37 39.51778 2.64830 3183 ft 208 kts 237°
2026-05-05 07:37 39.51006 2.63210 3655 ft 214 kts 237°
2026-05-05 07:37 39.50489 2.62121 4083 ft 215 kts 237°
2026-05-05 07:37 39.49073 2.60280 4741 ft 228 kts 208°
2026-05-05 07:38 39.48122 2.59663 5133 ft 231 kts 207°
2026-05-05 07:38 39.46679 2.58735 5896 ft 232 kts 206°
2026-05-05 07:38 39.45129 2.58147 6612 ft 235 kts 183°
2026-05-05 07:38 39.43502 2.58555 7313 ft 240 kts 155°
2026-05-05 07:39 39.42224 2.59960 7985 ft 248 kts 126°
2026-05-05 07:39 39.41640 2.62077 8650 ft 257 kts 95°
2026-05-05 07:39 39.41647 2.64446 9105 ft 272 kts 90°
2026-05-05 07:39 39.41704 2.66964 9480 ft 288 kts 90°
2026-05-05 07:40 39.41769 2.69612 9929 ft 300 kts 90°
2026-05-05 07:40 39.41835 2.72356 10343 ft 313 kts 90°
2026-05-05 07:40 39.41899 2.75239 10637 ft 329 kts 91°
2026-05-05 07:40 39.41959 2.78262 10904 ft 345 kts 91°
2026-05-05 07:41 39.42017 2.81432 11209 ft 358 kts 91°
2026-05-05 07:41 39.42078 2.84682 11723 ft 364 kts 91°
2026-05-05 07:41 39.42141 2.87974 12281 ft 369 kts 91°
2026-05-05 07:41 39.42203 2.91312 12827 ft 374 kts 91°
2026-05-05 07:42 39.42261 2.94703 13377 ft 379 kts 91°
2026-05-05 07:42 39.42316 2.98137 13896 ft 384 kts 91°
2026-05-05 07:42 39.42370 3.01611 14387 ft 389 kts 91°
2026-05-05 07:42 39.42426 3.05122 14895 ft 393 kts 91°
2026-05-05 07:43 39.42480 3.08669 15406 ft 397 kts 91°
2026-05-05 07:43 39.42533 3.12256 15924 ft 400 kts 91°
2026-05-05 07:43 39.42586 3.15872 16432 ft 404 kts 91°
2026-05-05 07:43 39.42640 3.19524 16929 ft 408 kts 91°
2026-05-05 07:44 39.42819 3.23207 17412 ft 413 kts 82°
2026-05-05 07:44 39.43535 3.26818 17893 ft 418 kts 69°
2026-05-05 07:44 39.44804 3.30212 18354 ft 420 kts 58°
2026-05-05 07:44 39.46321 3.33464 18756 ft 424 kts 58°
2026-05-05 07:45 39.47849 3.36753 19181 ft 428 kts 58°
2026-05-05 07:45 39.49380 3.40065 19598 ft 431 kts 58°
2026-05-05 07:45 39.50916 3.43412 20004 ft 434 kts 58°
2026-05-05 07:45 39.52459 3.46788 20411 ft 437 kts 58°
2026-05-05 07:46 39.54034 3.50234 20818 ft 440 kts 58°
2026-05-05 07:46 39.55600 3.53659 21215 ft 443 kts 58°
2026-05-05 07:46 39.57178 3.57108 21610 ft 446 kts 58°
2026-05-05 07:46 39.58766 3.60583 22000 ft 450 kts 58°
2026-05-05 07:47 39.60366 3.64083 22377 ft 453 kts 58°
2026-05-05 07:47 39.61975 3.67608 22747 ft 456 kts 58°
2026-05-05 07:47 39.63592 3.71154 23127 ft 459 kts 58°
2026-05-05 07:47 39.65220 3.74730 23511 ft 462 kts 59°
2026-05-05 07:48 39.66856 3.78331 23818 ft 465 kts 59°
2026-05-05 07:48 39.68500 3.81958 24131 ft 467 kts 59°
2026-05-05 07:48 39.70153 3.85612 24439 ft 470 kts 58°
2026-05-05 07:48 39.71812 3.89281 24752 ft 473 kts 58°
2026-05-05 07:49 39.73482 3.92974 25061 ft 475 kts 58°
2026-05-05 07:49 39.75160 3.96689 25372 ft 478 kts 59°
2026-05-05 07:49 39.76842 4.00424 25674 ft 481 kts 59°
2026-05-05 07:49 39.78536 4.04186 25979 ft 483 kts 58°
2026-05-05 07:50 39.80239 4.07968 26273 ft 486 kts 58°
2026-05-05 07:50 39.81955 4.11769 26563 ft 488 kts 57°
2026-05-05 07:50 39.83931 4.15347 26862 ft 488 kts 46°
2026-05-05 07:50 39.86348 4.18424 27154 ft 485 kts 35°
2026-05-05 07:51 39.89122 4.20888 27437 ft 481 kts 24°
2026-05-05 07:51 39.92154 4.22668 27716 ft 476 kts 13°
2026-05-05 07:51 39.95335 4.23741 28004 ft 470 kts
2026-05-05 07:51 39.98565 4.24480 28282 ft 472 kts
2026-05-05 07:52 40.01808 4.25229 28576 ft 475 kts
2026-05-05 07:52 40.05069 4.25993 28863 ft 477 kts
2026-05-05 07:52 40.08341 4.26770 29156 ft 479 kts
2026-05-05 07:52 40.11631 4.27552 29433 ft 481 kts
2026-05-05 07:53 40.14936 4.28332 29708 ft 483 kts
2026-05-05 07:53 40.18249 4.29113 29970 ft 485 kts
2026-05-05 07:53 40.21584 4.29903 30203 ft 487 kts
2026-05-05 07:53 40.24924 4.30696 30407 ft 489 kts
2026-05-05 07:54 40.28323 4.31503 30617 ft 490 kts
2026-05-05 07:54 40.31684 4.32301 30813 ft 492 kts
2026-05-05 07:54 40.35052 4.33102 31061 ft 492 kts
2026-05-05 07:54 40.38412 4.33902 31353 ft 491 kts
2026-05-05 07:55 40.41772 4.34702 31636 ft 490 kts
2026-05-05 07:55 40.45120 4.35496 31911 ft 489 kts
2026-05-05 07:55 40.48471 4.36292 32182 ft 489 kts
2026-05-05 07:55 40.51816 4.37089 32453 ft 488 kts
2026-05-05 07:56 40.55157 4.37887 32723 ft 488 kts
2026-05-05 07:56 40.58498 4.38687 32987 ft 488 kts
2026-05-05 07:56 40.61828 4.39481 33245 ft 487 kts
2026-05-05 07:56 40.65167 4.40276 33506 ft 487 kts
2026-05-05 07:57 40.68500 4.41072 33769 ft 486 kts
2026-05-05 07:57 40.71827 4.41869 34021 ft 486 kts
2026-05-05 07:57 40.75151 4.42670 34244 ft 486 kts
2026-05-05 07:57 40.78476 4.43473 34469 ft 485 kts
2026-05-05 07:58 40.81797 4.44275 34683 ft 485 kts
2026-05-05 07:58 40.85111 4.45074 34898 ft 485 kts
2026-05-05 07:58 40.88430 4.45874 35108 ft 484 kts
2026-05-05 07:58 40.91745 4.46675 35314 ft 484 kts
2026-05-05 07:59 40.95056 4.47476 35528 ft 484 kts
2026-05-05 07:59 40.98366 4.48277 35738 ft 484 kts
2026-05-05 07:59 41.01681 4.49080 35924 ft 484 kts
2026-05-05 07:59 41.04984 4.49883 35980 ft 482 kts
2026-05-05 08:00 41.11571 4.51494 35976 ft 481 kts
2026-05-05 08:00 41.18159 4.53095 35975 ft 481 kts
2026-05-05 08:01 41.24753 4.54698 35975 ft 482 kts
2026-05-05 08:01 41.31348 4.56316 35974 ft 482 kts
2026-05-05 08:02 41.37998 4.57943 35984 ft 483 kts
2026-05-05 08:02 41.44596 4.59557 35986 ft 482 kts
2026-05-05 08:03 41.51199 4.61182 35982 ft 483 kts
2026-05-05 08:03 41.57807 4.62820 35977 ft 483 kts
2026-05-05 08:04 41.64417 4.64459 35979 ft 483 kts
2026-05-05 08:04 41.71028 4.66103 35974 ft 484 kts
2026-05-05 08:05 41.77468 4.69028 35969 ft 493 kts 19°
2026-05-05 08:05 41.83778 4.72666 35983 ft 494 kts 19°
2026-05-05 08:06 41.90087 4.76291 35984 ft 493 kts 19°
2026-05-05 08:06 41.96397 4.79931 35990 ft 493 kts 19°
2026-05-05 08:07 42.02699 4.83579 35979 ft 494 kts 19°
2026-05-05 08:07 42.09007 4.87244 35975 ft 494 kts 19°
2026-05-05 08:08 42.14291 4.90317 35979 ft 494 kts 19°
2026-05-05 08:08 42.20599 4.93999 35977 ft 494 kts 19°